Home   Weather   Weno   Past weeks
Flag for Micronesia

Past Weather in Weno, Truk, Micronesia — Yesterday and Last 2 Weeks

Now
84 °F

Broken clouds.


Feels Like: 91 °F
Forecast: 85 / 80 °F
Wind: 13 mph from Northeast

Location: Truk Intl / Moen Island

Current Time: Jan 20, 2019 at 10:52:40 am

Latest Report: Jan 20, 2019 at 9:52 am


Visibility: 15 mi

Pressure: 29.83 "Hg

Humidity: 73%

Dew Point: 74 °F

Location of WenoLocation

Past Weather in Weno — Graph

°F

Weno Temperature Yesterday

Maximum temperature yesterday: 87 °F (at 12:50 pm)
Minimum temperature yesterday: 80 °F (at 1:50 am)
Average temperature yesterday: 83 °F

High & Low Weather Summary for the Past Weeks

 TemperatureHumidityPressure
High87 °F (Jan 11, 11:50 am)100% (Jan 16, 6:19 pm)29.86 "Hg (Jan 16, 6:19 pm)
Low76 °F (Jan 16, 6:53 pm)68% (Jan 5, 6:50 pm)29.61 "Hg (Jan 14, 2:52 pm)
Average81 °F87%29.76 "Hg
* Reported Jan 5 8:50 am — Jan 20 8:53 am, Weno. Weather by CustomWeather, © 2019

Note: Actual official high and low records may vary slightly from our data, if they occured in-between our weather recording intervals... More about our weather records

Advertising

Weno Weather History for the Previous 24 Hours

Scroll right to see more
 ConditionsComfort  
Time TempWeatherWind HumidityBarometerVisibility
8:53 am
Sun, Jan 20
84 °FBroken clouds.14 mph80%29.83 "Hg15 mi
7:52 am83 °FBroken clouds.14 mph81%29.82 "Hg15 mi
6:53 am82 °FPartly sunny.14 mph75%29.79 "Hg15 mi
5:53 am81 °FMostly cloudy.14 mph83%29.77 "Hg15 mi
5:19 am81 °FSprinkles. Overcast.9 mph89%29.75 "Hg12 mi
5:05 am81 °FRain showers. Overcast.15 mph89%29.76 "Hg3 mi
3:50 am82 °FMostly cloudy.9 mph84%29.74 "Hg15 mi
2:50 am81 °FMostly cloudy.14 mph85%29.75 "Hg15 mi
1:51 am82 °FMostly cloudy.12 mph84%29.76 "Hg15 mi
12:53 am80 °FScattered showers. Overcast.10 mph89%29.78 "Hg15 mi
11:50 pm
Sat, Jan 19
80 °FOvercast.14 mph87%29.79 "Hg15 mi
11:04 pm81 °FSprinkles. Overcast.10 mph89%29.79 "Hg14 mi
9:50 pm82 °FMostly cloudy.10 mph86%29.81 "Hg15 mi
8:50 pm82 °FMostly cloudy.9 mph86%29.81 "Hg15 mi
7:50 pm83 °FMostly cloudy.10 mph85%29.79 "Hg15 mi
6:51 pm83 °FOvercast.10 mph82%29.78 "Hg15 mi
5:50 pm82 °FScattered showers. Cloudy.8 mph82%29.78 "Hg15 mi
4:52 pm83 °FCloudy.9 mph79%29.75 "Hg15 mi
3:50 pm84 °FMostly cloudy.8 mph78%29.74 "Hg15 mi
2:50 pm85 °FCloudy.9 mph77%29.73 "Hg15 mi
1:52 pm85 °FCloudy.12 mph80%29.74 "Hg15 mi
12:50 pm87 °FMostly cloudy.10 mph80%29.76 "Hg15 mi
11:50 am85 °FMostly cloudy.8 mph91%29.79 "Hg15 mi
10:50 am86 °FMostly cloudy.12 mph82%29.82 "Hg15 mi
Weather by CustomWeather, © 2019

See weather overview